This is the latest recevied weather packets stored in our database for station/object CE3MXM-13. If no packets are shown the sender has not sent any weather packets the latest 10 day(s).
| Time | Temp. | Humidity | Pressure | Rain* | Wind** | Luminosity | Snow |
|---|---|---|---|---|---|---|---|
| 1778003707 | 22.22° C | 43% | 1008.2 hPa | - | - | - | - |
| 1778003407 | 22.78° C | 45% | 1008.4 hPa | - | - | - | - |
| 1778003107 | 23.33° C | 41% | 1008.4 hPa | - | - | - | - |
| 1778002807 | 23.33° C | 43% | 1008.2 hPa | - | - | - | - |
| 1778002507 | 22.78° C | 43% | 1008.3 hPa | - | - | - | - |
| 1778002207 | 22.78° C | 44% | 1008.4 hPa | - | - | - | - |
| 1778001907 | 22.78° C | 41% | 1008.3 hPa | - | - | - | - |
| 1778001606 | 22.78° C | 42% | 1008.3 hPa | - | - | - | - |
| 1778001306 | 22.78° C | 40% | 1008.3 hPa | - | - | - | - |
| 1778001006 | 22.78° C | 40% | 1008.2 hPa | - | - | - | - |
| 1778000706 | 22.22° C | 41% | 1008.2 hPa | - | - | - | - |
| 1778000406 | 22.22° C | 41% | 1008.2 hPa | - | - | - | - |
| 1778000106 | 22.22° C | 43% | 1008 hPa | - | - | - | - |
| 1777999806 | 22.78° C | 41% | 1008.2 hPa | - | - | - | - |
| 1777999505 | 23.33° C | 40% | 1008.3 hPa | - | - | - | - |
| 1777999206 | 23.33° C | 41% | 1008.3 hPa | - | - | - | - |
| 1777998905 | 23.33° C | 41% | 1008.3 hPa | - | - | - | - |
| 1777998605 | 23.89° C | 42% | 1008.2 hPa | - | - | - | - |
| 1777998305 | 23.33° C | 41% | 1008.3 hPa | - | - | - | - |
| 1777998005 | 23.33° C | 44% | 1008.3 hPa | - | - | - | - |
| 1777997705 | 23.33° C | 46% | 1008.2 hPa | - | - | - | - |
| 1777997405 | 22.22° C | 48% | 1008.2 hPa | - | - | - | - |
| 1777997105 | 21.67° C | 48% | 1008.4 hPa | - | - | - | - |
| 1777996805 | 21.11° C | 50% | 1008.4 hPa | - | - | - | - |
| 1777996505 | 21.67° C | 49% | 1008.4 hPa | - | - | - | - |
* Rain since midnight (hover to see other rain measurements)
** Current wind speed in m/s (hover to see current wind gust speed)